Location: Lafig�re
(44.4503°N, 4.0357°E)
Time: 01:32:11
(UTC+00:00)

Transit 4A - Pass Details

Date: 26 January 2021
Orbit: 866 x 979 km, 66.8° (Epoch: 24 February)

Event Time Altitude Azimuth Distance (km) Brightness Sun altitude
Rises 19:43:43 0° 247° (WSW) 3,671 11.9 -31.8°
Reaches altitude 10° 19:46:39 10° 258° (WSW) 2,727 11.1 -32.4°
Maximum altitude 19:52:09 29° 317° (NW) 1,694 9.6 -33.3°
Enters shadow 19:54:43 23° 355° (N) 1,964 9.6 -33.8°
Drops below altitude 10° 19:57:38 10° 17° (NNE) 2,711 - -34.3°
Sets 20:00:33 0° 28° (NNE) 3,646 - -34.8°
